TimeCDT,TemperatureF,Dew PointF,Humidity,Sea Level PressureIn,VisibilityMPH,Wind Direction,Wind SpeedMPH,Gust SpeedMPH,PrecipitationIn,Events,Conditions,WindDirDegrees,DateUTC
12:03 AM,60.8,60.8,100,29.80,5.0,South,3.5,-,N/A,,Overcast,180,2013-05-29 05:03:00
12:48 AM,60.8,60.8,100,29.79,5.0,Calm,Calm,-,N/A,,Overcast,0,2013-05-29 05:48:00
12:53 AM,60.8,60.8,100,29.79,5.0,Calm,Calm,-,N/A,,Overcast,0,2013-05-29 05:53:00
12:58 AM,60.3,60.3,100,29.80,4.0,NW,2.3,-,N/A,,Overcast,310,2013-05-29 05:58:00
1:08 AM,60.8,60.8,100,29.79,3.0,WNW,2.3,-,N/A,,Overcast,290,2013-05-29 06:08:00
1:13 AM,60.8,60.8,100,29.79,2.5,NW,2.3,-,N/A,,Overcast,320,2013-05-29 06:13:00
1:23 AM,59.0,59.0,100,29.79,3.0,NW,5.8,-,N/A,,Overcast,320,2013-05-29 06:23:00
1:38 AM,60.8,60.8,100,29.79,4.0,Calm,Calm,-,N/A,,Overcast,0,2013-05-29 06:38:00
1:43 AM,59.0,59.0,100,29.79,4.0,SE,1.2,-,N/A,,Overcast,130,2013-05-29 06:43:00
1:53 AM,59.0,59.0,100,29.80,3.0,ESE,2.3,-,N/A,,Overcast,120,2013-05-29 06:53:00
1:58 AM,59.0,59.0,100,29.81,2.5,SE,2.3,-,N/A,,Overcast,130,2013-05-29 06:58:00
2:08 AM,59.0,59.0,100,29.81,3.0,SE,2.3,-,N/A,,Overcast,140,2013-05-29 07:08:00
2:28 AM,59.0,59.0,100,29.80,2.5,East,2.3,-,N/A,,Overcast,100,2013-05-29 07:28:00
2:33 AM,59.0,59.0,100,29.80,1.8,East,2.3,-,N/A,,Overcast,100,2013-05-29 07:33:00
2:38 AM,59.0,59.0,100,29.80,1.5,SSE,2.3,-,N/A,,Mostly Cloudy,150,2013-05-29 07:38:00
2:43 AM,59.0,59.0,100,29.80,1.8,SSE,2.3,-,N/A,,Mostly Cloudy,150,2013-05-29 07:43:00
2:48 AM,59.0,59.0,100,29.80,2.0,SSE,2.3,-,N/A,,Mostly Cloudy,150,2013-05-29 07:48:00
2:53 AM,59.0,59.0,100,29.80,1.2,SE,3.5,-,N/A,,Mostly Cloudy,130,2013-05-29 07:53:00
2:58 AM,58.3,58.3,100,29.81,1.0,ESE,3.5,-,N/A,,Scattered Clouds,120,2013-05-29 07:58:00
3:03 AM,57.2,57.2,100,29.80,1.0,ESE,4.6,-,N/A,,Scattered Clouds,120,2013-05-29 08:03:00
3:08 AM,59.0,59.0,100,29.80,1.2,SSE,4.6,-,N/A,,Scattered Clouds,160,2013-05-29 08:08:00
3:13 AM,59.0,59.0,100,29.80,1.8,Calm,Calm,-,N/A,,Scattered Clouds,0,2013-05-29 08:13:00
3:18 AM,57.2,57.2,100,29.81,1.8,SE,2.3,-,N/A,,Scattered Clouds,140,2013-05-29 08:18:00
3:23 AM,57.2,57.2,100,29.80,1.2,ESE,2.3,-,N/A,,Partly Cloudy,110,2013-05-29 08:23:00
3:28 AM,57.2,57.2,100,29.79,0.8,ENE,3.5,-,N/A,,Partly Cloudy,70,2013-05-29 08:28:00
3:33 AM,57.2,57.2,100,29.79,0.5,ENE,1.2,-,N/A,Fog,Fog,60,2013-05-29 08:33:00
3:43 AM,57.2,57.2,100,29.79,0.2,Calm,Calm,-,N/A,Fog,Fog,0,2013-05-29 08:43:00
3:52 AM,55.4,55.4,100,29.79,0.2,Calm,Calm,-,N/A,Fog,Fog,0,2013-05-29 08:52:00
3:57 AM,55.4,55.4,100,29.79,0.2,South,1.2,-,N/A,Fog,Fog,180,2013-05-29 08:57:00
3:58 AM,55.4,55.4,100,29.80,0.2,Calm,Calm,-,N/A,Fog,Fog,0,2013-05-29 08:58:00
4:08 AM,55.4,55.4,100,29.80,0.2,South,3.5,-,N/A,Fog,Fog,190,2013-05-29 09:08:00
4:23 AM,57.2,57.2,100,29.81,0.5,South,6.9,-,N/A,Fog,Fog,170,2013-05-29 09:23:00
4:28 AM,59.0,59.0,100,29.81,1.0,South,5.8,-,N/A,,Mist,180,2013-05-29 09:28:00
4:33 AM,59.0,59.0,100,29.81,2.5,South,5.8,-,N/A,,Overcast,180,2013-05-29 09:33:00
4:38 AM,59.0,59.0,100,29.81,2.5,SSE,2.3,-,N/A,,Overcast,150,2013-05-29 09:38:00
4:43 AM,59.0,59.0,100,29.81,1.5,ENE,1.2,-,N/A,,Overcast,70,2013-05-29 09:43:00
4:48 AM,59.0,59.0,100,29.81,1.0,Calm,Calm,-,N/A,,Mist,0,2013-05-29 09:48:00
4:53 AM,59.0,59.0,100,29.81,0.5,NE,1.2,-,N/A,Fog,Fog,40,2013-05-29 09:53:00
4:58 AM,59.0,59.0,100,29.82,0.5,SSE,4.6,-,N/A,Fog,Fog,150,2013-05-29 09:58:00
5:18 AM,59.0,59.0,100,29.83,0.8,SSE,4.6,-,N/A,,Mist,160,2013-05-29 10:18:00
5:23 AM,59.0,59.0,100,29.83,0.8,SSE,5.8,-,N/A,,Mist,150,2013-05-29 10:23:00
5:43 AM,59.0,59.0,100,29.84,0.5,Calm,Calm,-,N/A,Fog,Fog,0,2013-05-29 10:43:00
5:48 AM,59.0,59.0,100,29.84,0.5,Calm,Calm,-,N/A,Fog,Fog,0,2013-05-29 10:48:00
5:53 AM,59.0,59.0,100,29.84,0.2,Calm,Calm,-,N/A,Fog,Fog,0,2013-05-29 10:53:00
5:58 AM,59.7,59.7,100,29.85,0.2,Calm,Calm,-,N/A,Fog,Fog,0,2013-05-29 10:58:00
6:08 AM,59.0,59.0,100,29.85,0.5,Calm,Calm,-,N/A,Fog,Fog,0,2013-05-29 11:08:00
6:18 AM,59.0,59.0,100,29.85,0.5,North,2.3,-,N/A,Fog,Fog,10,2013-05-29 11:18:00
6:23 AM,60.8,60.8,100,29.85,0.8,NNE,2.3,-,N/A,,Mist,20,2013-05-29 11:23:00
6:28 AM,60.8,60.8,100,29.85,1.0,North,4.6,-,N/A,,Mist,360,2013-05-29 11:28:00
6:33 AM,60.8,60.8,100,29.85,1.2,NNE,1.2,-,N/A,,Overcast,30,2013-05-29 11:33:00
6:43 AM,60.8,60.8,100,29.85,1.5,ESE,2.3,-,N/A,,Overcast,110,2013-05-29 11:43:00
6:48 AM,60.8,60.8,100,29.86,2.0,SE,3.5,-,N/A,,Overcast,140,2013-05-29 11:48:00
6:53 AM,60.8,60.8,100,29.86,1.8,SE,3.5,-,N/A,,Overcast,130,2013-05-29 11:53:00
6:58 AM,60.8,60.8,100,29.87,1.2,SE,4.6,-,N/A,,Overcast,130,2013-05-29 11:58:00
7:58 AM,62.6,62.6,100,29.87,3.0,South,4.6,-,N/A,,Overcast,170,2013-05-29 12:58:00
8:24 AM,62.6,62.6,100,29.86,6.0,South,6.9,-,N/A,,Overcast,180,2013-05-29 13:24:00
8:58 AM,66.2,62.6,88,29.85,10.0,South,5.8,-,N/A,,Overcast,190,2013-05-29 13:58:00
9:58 AM,69.8,64.4,83,29.85,10.0,Variable,2.3,-,N/A,,Mostly Cloudy,0,2013-05-29 14:58:00
10:58 AM,75.2,64.4,69,29.86,10.0,WSW,6.9,-,N/A,,Mostly Cloudy,240,2013-05-29 15:58:00
11:58 AM,77.0,62.6,61,29.85,10.0,Variable,1.2,-,N/A,,Mostly Cloudy,0,2013-05-29 16:58:00
12:58 PM,80.6,62.6,54,29.83,10.0,South,8.1,-,N/A,,Mostly Cloudy,170,2013-05-29 17:58:00
1:58 PM,82.4,64.4,54,29.84,10.0,SSW,11.5,-,N/A,,Scattered Clouds,210,2013-05-29 18:58:00
2:58 PM,82.6,63.3,52,29.81,10.0,SE,8.1,-,N/A,,Clear,140,2013-05-29 19:58:00
3:58 PM,82.4,64.4,54,29.79,10.0,SE,15.0,-,N/A,,Scattered Clouds,140,2013-05-29 20:58:00
4:58 PM,80.6,64.4,58,29.79,10.0,SSE,11.5,-,N/A,,Overcast,150,2013-05-29 21:58:00
5:58 PM,78.8,66.2,65,29.78,10.0,SE,8.1,-,N/A,,Overcast,140,2013-05-29 22:58:00
6:45 PM,77.0,66.2,69,29.78,10.0,SE,10.4,-,N/A,,Overcast,130,2013-05-29 23:45:00
6:58 PM,77.0,66.2,69,29.78,10.0,SE,10.4,-,N/A,Thunderstorm,Thunderstorm,130,2013-05-29 23:58:00
7:15 PM,77.0,66.2,69,29.79,7.0,SE,10.4,-,N/A,Rain-Thunderstorm,Light Thunderstorms and Rain,130,2013-05-30 00:15:00
7:27 PM,75.2,68.0,78,29.81,1.5,SW,16.1,24.2,N/A,Rain-Thunderstorm,Thunderstorms and Rain,220,2013-05-30 00:27:00
7:30 PM,75.2,66.2,73,29.85,1.5,WSW,31.1,41.4,N/A,Rain-Thunderstorm,Thunderstorms and Rain,240,2013-05-30 00:30:00
7:35 PM,69.8,64.4,83,29.85,5.0,SSW,13.8,41.4,N/A,Rain-Thunderstorm,Light Thunderstorms and Rain,210,2013-05-30 00:35:00
7:58 PM,64.4,64.4,100,29.87,7.0,SW,12.7,18.4,N/A,Rain-Thunderstorm,Light Thunderstorms and Rain,220,2013-05-30 00:58:00
8:42 PM,64.4,64.4,100,29.86,5.0,NW,3.5,-,N/A,Rain,Light Rain Showers,310,2013-05-30 01:42:00
8:58 PM,64.4,64.4,100,29.86,5.0,Calm,Calm,-,N/A,Rain,Light Rain Showers,0,2013-05-30 01:58:00
9:58 PM,64.4,64.4,100,29.86,10.0,SSE,4.6,-,N/A,Rain,Light Rain Showers,160,2013-05-30 02:58:00
10:58 PM,64.4,64.4,100,29.83,5.0,SE,9.2,-,N/A,Rain-Thunderstorm,Light Rain Showers,140,2013-05-30 03:58:00
11:06 PM,64.4,64.4,100,29.82,5.0,SSE,11.5,-,N/A,Rain-Thunderstorm,Light Thunderstorms and Rain,150,2013-05-30 04:06:00
11:53 PM,64.4,62.6,94,29.83,6.0,SE,10.4,-,N/A,Rain,Light Rain,140,2013-05-30 04:53:00
11:58 PM,63.9,63.3,98,29.83,7.0,SE,10.4,-,0.14,Rain,Light Rain,140,2013-05-30 04:58:00